Regional Weather Roundup
Issued by NWS

Home | Current Version | Previous Version | Text Only | Print | Product List | Glossary Off
Versions: 1 2 3 4 5 6 7 8 9 10 11 12 13 14 15 16 17 18 19 20 21 22 23 24 25 26 27 28 29 30 31 32 33 34 35 36 37 38 39 40 41 42 43 44 45 46 47 48 49 50

000
ASUS43 KOAX 281210
RWRNE

WEATHER ROUNDUP FOR NEBRASKA
NATIONAL WEATHER SERVICE OMAHA NE
700 AM CDT TUE MAR 28 2017

NOTES: SATELLITE DATA IS BEING USED TO AUGMENT CLOUD COVER ABOVE
       12000 FEET.
       "FAIR" INDICATES FEW OR NO CLOUDS BELOW 12,000 FEET WITH NO
       SIGNIFICANT WEATHER AND/OR OBSTRUCTIONS TO VISIBILITY.

  * THESE STATIONS DO NOT REPORT WEATHER SUCH AS RAIN...SNOW OR FOG.

NEZ001>004-019>022-054>056-281300-
NEBRASKA PANHANDLE

CITY           SKY/WX    TMP DP  RH WIND       PRES   REMARKS
SCOTTSBLUFF    LGT RAIN  46  43  89 SE15      29.89R FOG
6HR MIN TEMP:  46; 6HR MAX TEMP:  50; 6HR PCP:  0.58;

ALLIANCE       RAIN      45  43  93 SE14      29.92R FOG
6HR MIN TEMP:  44; 6HR MAX TEMP:  49; 6HR PCP:  0.30;

CHADRON        LGT RAIN  43  41  93 NE6       29.94S
6HR MIN TEMP:  43; 6HR MAX TEMP:  46; 6HR PCP:  0.31;

KIMBALL        LGT RAIN  43  43 100 SE12      29.86R
SIDNEY         LGT RAIN  44  42  93 SE12      29.88S
6HR MIN TEMP:  44; 6HR MAX TEMP:  50; 6HR PCP:  0.13;

$$

NEZ057>060-069>072-079>082-281300-
SOUTHWEST NEBRASKA

CITY           SKY/WX    TMP DP  RH WIND       PRES   REMARKS
NORTH PLATTE   CLOUDY    45  43  93 SE9       29.96R
6HR MIN TEMP:  42; 6HR MAX TEMP:  47;

IMPERIAL       CLOUDY    45  43  93 E12       29.92S
6HR MIN TEMP:  45; 6HR MAX TEMP:  47; 6HR PCP:  0.02;

LEXINGTON      FOG       42  40  95 E6        30.00R VSB 1/4
MCCOOK         CLOUDY    45  44  97 E9        29.94F FOG
6HR MIN TEMP:  44; 6HR MAX TEMP:  45; 6HR PCP: TRACE;

OGALLALA       LGT RAIN  47  45  91 S3        29.93S
$$

NEZ005>010-023>029-035>040-094-281300-
NORTH CENTRAL NEBRASKA

CITY           SKY/WX    TMP DP  RH WIND       PRES   REMARKS
VALENTINE      CLOUDY    45  42  89 E5        29.99S
6HR MIN TEMP:  45; 6HR MAX TEMP:  49; 6HR PCP:  0.03;

AINSWORTH      CLOUDY    43  43  97 CALM      29.99S
BROKEN BOW     FOG       41  40  96 E7        30.00R VSB 1/2
6HR MIN TEMP:  40; 6HR MAX TEMP:  43;

O`NEILL        CLOUDY    39  38  99 SE5       30.03S FOG
ORD            CLOUDY    41  38  89 S5        30.02R FOG
6HR MIN TEMP:  35; 6HR MAX TEMP:  42;

THEDFORD       CLOUDY    42  41  97 NE5       29.99R FOG
$$

NEZ041-046>049-061>064-073>077-083>087-281300-
SOUTH CENTRAL NEBRASKA

CITY           SKY/WX    TMP DP  RH WIND       PRES   REMARKS
GRAND ISLAND   FOG       32  32 100 CALM      30.04R VSB 1/4
6HR MIN TEMP:  32; 6HR MAX TEMP:  39;

AURORA         FOG       32  32 100 E3        30.04R VSB 1/4
HASTINGS       CLOUDY    40  38  93 E6        30.05R
6HR MIN TEMP:  36; 6HR MAX TEMP:  42;

HEBRON         CLEAR     36  35  99 CALM      30.04R FOG
HOLDREGE       FOG       42  42  97 SE6       30.01R VSB 1/4
KEARNEY *      CLOUDY    39  37  93 E3        30.03R
YORK           FOG       32  32 100 CALM      30.04S VSB 1/2
$$

NEZ011>018-030>034-042>045-281300-
NORTHEAST NEBRASKA

CITY           SKY/WX    TMP DP  RH WIND       PRES   REMARKS
NORFOLK        FOG       33  31  92 CALM      30.05R VSB 1/2
6HR MIN TEMP:  31; 6HR MAX TEMP:  38;

ALBION         FOG       37  35  94 CALM      30.05R VSB 1
BLAIR          CLOUDY    40  38  93 N6        30.05R
FREMONT        PTCLDY    38  38 100 CALM      30.06S
TEKAMAH        FOG       33  32  96 NW8       30.07R VSB 1/2 WCI  26
6HR MIN TEMP:  31; 6HR MAX TEMP:  37;

WAYNE          FOG       29  28  99 CALM      30.07R VSB 1
$$

NEZ050>053-065>068-078-088>093-281300-
SOUTHEAST NEBRASKA

CITY           SKY/WX    TMP DP  RH WIND       PRES   REMARKS
LINCOLN        PTCLDY    33  31  92 CALM      30.07R
6HR MIN TEMP:  30; 6HR MAX TEMP:  38;

OMAHA EPPLEY   CLOUDY    39  35  86 NW5       30.07R
6HR MIN TEMP:  33; 6HR MAX TEMP:  41;

BEATRICE       CLEAR     36  35  99 NE5       30.04R FOG     WCI  32
FALLS CITY     CLOUDY    46  43  89 NE6       30.03S
6HR MIN TEMP:  45; 6HR MAX TEMP:  48;

NEBRASKA CITY  CLOUDY    43  41  93 N3        30.05R
PLATTSMOUTH    CLOUDY    43  38  83 CALM      30.06R
$$

NEZ044-045-051>053-067-281300-
OMAHA AREA

CITY           SKY/WX    TMP DP  RH WIND       PRES   REMARKS
OMAHA EPPLEY   CLOUDY    39  35  86 NW5       30.07R
6HR MIN TEMP:  33; 6HR MAX TEMP:  41;

BLAIR          CLOUDY    40  38  93 N6        30.05R
FREMONT        PTCLDY    38  38 100 CALM      30.06S
MILLARD        CLOUDY    45  41  85 CALM      30.07R
OFFUTT AFB     CLOUDY    42  38  86 NE6       30.06R
PLATTSMOUTH    CLOUDY    43  38  83 CALM      30.06R
WAHOO          CLOUDY    38  37  97 CALM      30.06R FOG
$$




USA.gov is the U.S. government's official web portal to all federal, state and local government web resources and services.